This is the latest recevied weather packets stored in our database for station/object W4UWO. If no packets are shown the sender has not sent any weather packets the latest 10 day(s).
| Time | Temp. | Humidity | Pressure | Rain* | Wind** | Luminosity | Snow |
|---|---|---|---|---|---|---|---|
| 1788146690 | 26.11° C | 76% | 1020.1 hPa | 0 mm | - | 0 W/m² | - |
| 1788146385 | 26.67° C | 75% | 1020.1 hPa | 0 mm | - | 0 W/m² | - |
| 1788146085 | 26.67° C | 73% | 1020.1 hPa | 0 mm | - | 0 W/m² | - |
| 1788145784 | 27.22° C | 72% | 1019.9 hPa | 0 mm | - | 0 W/m² | - |
| 1788145483 | 27.22° C | 71% | 1019.8 hPa | 0 mm | - | 0 W/m² | - |
| 1788145181 | 27.78° C | 70% | 1019.7 hPa | 0 mm | - | 0 W/m² | - |
| 1788144880 | 27.78° C | 69% | 1019.8 hPa | 0 mm | - | 0 W/m² | - |
| 1788144577 | 27.22° C | 70% | 1019.8 hPa | 0 mm | - | 0 W/m² | - |
| 1788144276 | 27.78° C | 69% | 1019.7 hPa | 0 mm | - | 0 W/m² | - |
| 1788143971 | 27.78° C | 69% | 1019.5 hPa | 0 mm | - | 0 W/m² | - |
| 1788143669 | 27.78° C | 67% | 1019.7 hPa | 0 mm | - | 0 W/m² | - |
| 1788143365 | 28.33° C | 66% | 1019.7 hPa | 0 mm | - | 0 W/m² | - |
| 1788143063 | 28.89° C | 65% | 1019.7 hPa | 0 mm | - | 0 W/m² | - |
| 1788142758 | 28.89° C | 63% | 1019.6 hPa | 0 mm | - | 0 W/m² | - |
| 1788142458 | 28.89° C | 63% | 1019.5 hPa | 0 mm | - | 0 W/m² | - |
| 1788142154 | 29.44° C | 62% | 1019.5 hPa | 0 mm | - | 0 W/m² | - |
| 1788141853 | 28.89° C | 63% | 1019.5 hPa | 0 mm | - | 0 W/m² | - |
| 1788141548 | 28.89° C | 63% | 1019.3 hPa | 0 mm | - | 0 W/m² | - |
| 1788141245 | 28.89° C | 62% | 1019.4 hPa | 0 mm | - | 0 W/m² | - |
| 1788140944 | 28.89° C | 62% | 1019.5 hPa | 0 mm | - | 0 W/m² | - |
| 1788140639 | 29.44° C | 61% | 1019.3 hPa | 0 mm | - | 0 W/m² | - |
| 1788140335 | 29.44° C | 61% | 1019.3 hPa | 0 mm | - | 0 W/m² | - |
| 1788140030 | 28.89° C | 62% | 1019.3 hPa | 0 mm | - | 0 W/m² | - |
| 1788139724 | 28.89° C | 62% | 1019.3 hPa | 0 mm | - | 0 W/m² | - |
| 1788139420 | 28.89° C | 61% | 1019.3 hPa | 0 mm | - | 0 W/m² | - |
* Rain latest hour (hover to see other rain measurements)
** Current wind speed in m/s (hover to see current wind gust speed)